Вернуться в каталог

PEGASUS DEB

АктивенPO
NORAD 39924·DEBRIS·🇺🇸 United States

Запущен May 19, 1994 с Vandenberg Space Force Base

Loading…

Ближайшие Пролёты (ближайшие 24 часа)

TLE

СвежийSource: Space-Track

Эпоха: Sep 13, 2026, 03:46 UTC

1 39924U 94029AFX 26256.15743944  .00001710  00000-0  17040-3 0  9993
2 39924  81.8518  56.5085 0104974 353.8571   6.1348 14.86962218660052

Отслеживайте PEGASUS DEB в реальном времени с AllMySat

Download on the App Store